Weather History for Birmingham, United Kingdom

Change the Weather History Date:

Monday, November 14, 2011

  Actual Average Record
Temperature  
Mean Temperature 47 °F -  
Max Temperature 50 °F 47 °F 57 °F (2008)
Min Temperature 44 °F 36 °F 24 °F (2004)
Degree Days  
Heating Degree Days 18    
Moisture  
Dew Point 45 °F    
Average Humidity 92    
Maximum Humidity 100    
Minimum Humidity 87    
Precipitation  
Precipitation 0.00 in 0.08 in - ()
Sea Level Pressure  
Sea Level Pressure 30.21 in    
Wind  
Wind Speed 7 mph ()    
Max Wind Speed 12 mph    
Max Gust Speed -    
Visibility 3.2 miles    
Events      
Averages and records for this station are not official NWS values.
T = Trace of Precipitation, MM = Missing Value Source: Averaged Metar Reports

Daily Weather History Graph

Daily Weather History Graph

Search for Another Location

Airport:

Trip Planner

Search our weather history database for the weather conditions in past years. The results will help you decide how hot, cold, wet, or windy it might be!

Date:

Astronomy

Nov. 14, 2011 Rise Set
Actual Time 7:26 AM GMT 4:16 PM GMT
Civil Twilight 6:48 AM GMT 4:53 PM GMT
Nautical Twilight 6:06 AM GMT 5:35 PM GMT
Astronomical Twilight 5:26 AM GMT 6:15 PM GMT
Moon 6:56 PM GMT (11/14) 10:46 AM GMT (11/14)
Length of Visible Light 10h 05m
Length of Day
8h 50m
Waning Gibbous, 88% of the Moon is Illuminated
Nov 14
Waning Gibbous
Nov 18
Last Quarter
Nov 25
New
Dec 2
First Quarter
Dec 10
Full

Hourly Weather History & Observations

Time (GMT) Temp. Windchill Dew Point Humidity Pressure Visibility Wind Dir Wind Speed Gust Speed Precip Events Conditions
12:20 AM 46.4 °F 42.4 °F 44.6 °F 93% 30.27 in - East 8.1 mph - N/A   Overcast
12:50 AM 46.4 °F 42.4 °F 44.6 °F 93% 30.27 in - East 8.1 mph - N/A   Overcast
1:20 AM 44.6 °F 40.2 °F 44.6 °F 100% 30.27 in 2.5 mi ENE 8.1 mph - N/A   Overcast
1:50 AM 44.6 °F 39.7 °F 42.8 °F 93% 30.27 in - ENE 9.2 mph - N/A   Haze
2:20 AM 44.6 °F 39.2 °F 42.8 °F 93% 30.27 in 3.1 mi East 10.4 mph - N/A   Overcast
2:50 AM 44.6 °F 40.2 °F 42.8 °F 93% 30.27 in 3.1 mi East 8.1 mph - N/A   Overcast
3:20 AM 44.6 °F 40.7 °F 42.8 °F 93% 30.27 in - East 6.9 mph - N/A   Haze
3:50 AM 44.6 °F 41.4 °F 42.8 °F 93% 30.27 in 3.1 mi East 5.8 mph - N/A   Overcast
4:20 AM 44.6 °F 42.2 °F 42.8 °F 93% 30.27 in 3.1 mi East 4.6 mph - N/A   Overcast
4:50 AM 44.6 °F 40.7 °F 42.8 °F 93% 30.27 in 3.7 mi East 6.9 mph - N/A   Overcast
5:20 AM 46.4 °F 42.4 °F 42.8 °F 87% 30.24 in 4.3 mi East 8.1 mph - N/A   Overcast
5:50 AM 46.4 °F 44.3 °F 42.8 °F 87% 30.24 in 5.0 mi ENE 4.6 mph - N/A   Overcast
6:20 AM 46.4 °F - 42.8 °F 87% 30.24 in 5.6 mi Variable 2.3 mph - N/A   Overcast
7:20 AM 46.4 °F 45.2 °F 42.8 °F 87% 30.24 in 3.1 mi NNE 3.5 mph - N/A   Overcast
7:50 AM 46.4 °F 44.3 °F 42.8 °F 87% 30.24 in - NE 4.6 mph - N/A   Overcast
8:20 AM 46.4 °F 44.3 °F 44.6 °F 93% 30.24 in - NE 4.6 mph - N/A   Haze
8:50 AM 46.4 °F 42.9 °F 44.6 °F 93% 30.24 in - NE 6.9 mph - N/A   Haze
9:20 AM 48.2 °F - 44.6 °F 87% 30.24 in 2.8 mi ENE 6.9 mph - N/A   Haze
9:50 AM 48.2 °F - 44.6 °F 87% 30.24 in - ENE 6.9 mph - N/A   Haze
10:20 AM 48.2 °F - 44.6 °F 87% 30.24 in 3.7 mi East 6.9 mph - N/A   Mostly Cloudy
10:50 AM 50.0 °F - 46.4 °F 87% 30.21 in 3.1 mi East 5.8 mph - N/A   Overcast
11:20 AM 48.2 °F - 44.6 °F 87% 30.21 in 3.7 mi ESE 9.2 mph - N/A   Overcast
11:50 AM 48.2 °F - 44.6 °F 87% 30.21 in 4.3 mi ESE 9.2 mph - N/A   Mostly Cloudy
12:20 PM 48.2 °F - 44.6 °F 87% 30.21 in 3.7 mi ESE 8.1 mph - N/A   Mostly Cloudy
12:50 PM 48.2 °F - 44.6 °F 87% 30.18 in 4.3 mi East 8.1 mph - N/A   Overcast
1:20 PM 48.2 °F - 46.4 °F 93% 30.18 in 3.7 mi ESE 8.1 mph - N/A   Overcast
1:50 PM 48.2 °F - 46.4 °F 93% 30.18 in 3.7 mi ESE 9.2 mph - N/A   Overcast
2:20 PM 48.2 °F - 46.4 °F 93% 30.18 in 3.7 mi East 6.9 mph - N/A   Overcast
2:50 PM 48.2 °F - 46.4 °F 93% 30.18 in 3.7 mi ESE 8.1 mph - N/A   Mostly Cloudy
3:20 PM 48.2 °F - 46.4 °F 93% 30.18 in 3.7 mi East 6.9 mph - N/A   Mostly Cloudy
3:50 PM 48.2 °F - 46.4 °F 93% 30.18 in - East 8.1 mph - N/A   Haze
4:20 PM 48.2 °F - 46.4 °F 93% 30.18 in 3.1 mi ENE 6.9 mph - N/A   Overcast
4:50 PM 48.2 °F - 46.4 °F 93% 30.18 in 3.1 mi East 9.2 mph - N/A   Haze
5:20 PM 48.2 °F - 46.4 °F 93% 30.18 in 3.7 mi East 6.9 mph - N/A   Overcast
5:50 PM 48.2 °F - 46.4 °F 93% 30.18 in 3.1 mi ENE 6.9 mph - N/A   Haze
6:20 PM 48.2 °F - 46.4 °F 93% 30.18 in - ENE 8.1 mph - N/A   Haze
6:50 PM 48.2 °F - 46.4 °F 93% 30.18 in 3.1 mi ENE 8.1 mph - N/A   Haze
7:20 PM 48.2 °F - 46.4 °F 93% 30.18 in 2.5 mi East 6.9 mph - N/A   Haze
7:50 PM 48.2 °F - 46.4 °F 93% 30.18 in 2.8 mi East 6.9 mph - N/A   Haze
8:20 PM 48.2 °F - 46.4 °F 93% 30.15 in 2.5 mi East 6.9 mph - N/A   Haze
8:50 PM 48.2 °F - 46.4 °F 93% 30.15 in 2.5 mi East 8.1 mph - N/A   Haze
9:20 PM 48.2 °F - 46.4 °F 93% 30.15 in 2.5 mi East 9.2 mph - N/A   Mostly Cloudy
9:50 PM 48.2 °F - 46.4 °F 93% 30.15 in 2.5 mi East 11.5 mph - N/A   Mostly Cloudy
10:20 PM 48.2 °F - 46.4 °F 93% 30.15 in 2.5 mi East 9.2 mph - N/A   Mostly Cloudy
10:50 PM 48.2 °F - 46.4 °F 93% 30.15 in 2.5 mi East 9.2 mph - N/A   Mostly Cloudy
11:20 PM 48.2 °F - 46.4 °F 93% 30.15 in 1.9 mi East 8.1 mph - N/A   Mostly Cloudy
11:50 PM 46.4 °F 41.9 °F 46.4 °F 100% 30.15 in 1.2 mi East 9.2 mph - N/A   Mostly Cloudy